Location: Newark
(39.5667°N, 8.9833°E)
Time: 06:06:17
(UTC+00:00)

Transit 4A - All Passes

Search period start: 17 October 2019 00:00
Search period end: 27 October 2019 00:00
Orbit: 866 x 978 km, 66.8° (Epoch: 16 October)

Date Brightness Start Highest point End Pass type
(mag) Time Alt. Az. Time Alt. Az. Time Alt. Az.
17 Oct - 03:34:26 10° SSE 03:39:46 29° ESE 03:45:03 10° NE visible
17 Oct - 05:19:44 10° SW 05:25:52 48° NW 05:31:55 10° NNE daylight
17 Oct - 07:12:18 10° NW 07:13:49 11° NW 07:15:20 10° NNW daylight
17 Oct - 12:37:49 10° N 12:42:55 28° NE 12:47:52 10° ESE daylight
17 Oct - 14:23:47 10° NW 14:29:31 49° WSW 14:35:05 10° S daylight
18 Oct - 03:42:59 10° S 03:48:56 43° ESE 03:54:50 10° NE visible
18 Oct - 05:29:41 10° WSW 05:35:23 34° NW 05:41:02 10° NNE daylight
18 Oct - 12:46:53 10° NNW 12:52:28 39° NE 12:57:55 10° ESE daylight
18 Oct - 14:33:29 10° NW 14:38:40 32° WSW 14:43:45 10° S daylight
19 Oct - 03:51:53 10° SSW 03:58:10 65° ESE 04:04:22 10° NE visible
19 Oct - 05:39:54 10° W 05:45:00 25° NW 05:50:01 10° N daylight
19 Oct - 11:12:01 10° NNE 11:14:12 12° NE 11:16:21 10° ENE daylight
19 Oct - 12:56:02 10° NNW 13:01:57 57° ENE 13:07:40 10° SE daylight
19 Oct - 14:43:29 10° WNW 14:47:45 21° WSW 14:51:57 10° SSW daylight
20 Oct - 02:18:47 10° SE 02:21:56 14° ESE 02:25:03 10° ENE visible
20 Oct - 04:01:06 10° SSW 04:07:28 87° WNW 04:13:46 10° NNE visible
20 Oct - 05:50:31 10° W 05:54:43 18° NW 05:58:52 10° N daylight
20 Oct - 11:20:21 10° N 11:24:02 16° NE 11:27:39 10° E daylight
20 Oct - 13:05:19 10° NNW 13:11:19 85° ENE 13:17:09 10° SSE daylight
20 Oct - 14:54:15 10° WNW 14:56:46 13° WSW 14:59:16 10° SW daylight
21 Oct - 02:26:15 10° SSE 02:30:59 22° ESE 02:35:39 10° ENE visible
21 Oct - 04:10:34 10° SW 04:16:52 61° WNW 04:23:03 10° NNE visible
21 Oct - 06:01:38 10° WNW 06:04:31 13° NW 06:07:23 10° N daylight
21 Oct - 11:29:07 10° N 11:33:45 22° NE 11:38:17 10° E daylight
21 Oct - 13:14:43 10° NW 13:20:37 65° WSW 13:26:21 10° SSE daylight
22 Oct - 02:34:30 10° S 02:40:05 33° ESE 02:45:37 10° NE visible
22 Oct - 04:20:20 10° SW 04:26:19 42° NW 04:32:14 10° NNE visible
22 Oct - 11:38:06 10° NNW 11:43:23 31° NE 11:48:32 10° ESE daylight
22 Oct - 13:24:16 10° NW 13:29:50 42° WSW 13:35:15 10° S daylight
23 Oct - 02:43:11 10° S 02:49:17 50° ESE 02:55:18 10° NE visible
23 Oct - 04:30:22 10° WSW 04:35:52 30° NW 04:41:18 10° N visible
23 Oct - 11:47:12 10° NNW 11:52:55 45° NE 11:58:27 10° SE daylight
23 Oct - 13:34:04 10° NW 13:38:58 27° WSW 13:43:46 10° SSW daylight
24 Oct - 01:12:59 10° ESE 01:13:13 10° E 01:13:26 10° E visible
24 Oct - 02:52:12 10° SSW 02:58:32 74° ESE 03:04:47 10° NNE visible
24 Oct - 04:40:44 10° W 04:45:31 22° NW 04:50:14 10° N visible
24 Oct - 10:11:58 10° N 10:14:46 13° NE 10:17:32 10° ENE daylight
24 Oct - 11:56:23 10° NNW 12:02:21 66° ENE 12:08:07 10° SE daylight
24 Oct - 13:44:16 10° WNW 13:48:01 18° WSW 13:51:44 10° SW daylight
25 Oct - 01:18:22 10° SE 01:22:13 17° ESE 01:26:01 10° ENE visible
25 Oct - 03:01:31 10° SSW 03:07:52 77° WNW 03:14:09 10° NNE visible
25 Oct - 04:51:29 10° WNW 04:55:15 16° NW 04:58:59 10° N visible
25 Oct - 10:20:31 10° N 10:24:34 18° NE 10:28:32 10° E daylight
25 Oct - 12:05:43 10° NNW 12:11:41 84° WSW 12:17:30 10° SSE daylight
25 Oct - 13:55:57 10° W 13:57:01 10° W 13:58:04 10° WSW daylight
26 Oct - 01:26:12 10° SSE 01:31:17 26° ESE 01:36:18 10° NE visible
26 Oct - 03:11:06 10° SW 03:17:17 53° WNW 03:23:23 10° NNE visible
26 Oct - 05:02:57 10° NW 05:05:06 12° NW 05:07:14 10° NNW visible
26 Oct - 10:29:22 10° N 10:34:15 25° NE 10:39:01 10° ESE daylight
26 Oct - 12:15:10 10° NW 12:20:57 55° WSW 12:26:36 10° S daylight
